GW5240 Weather Reports


Display with metric or nautical units.
time (UTC)temp
F
wind
direction
speed
MPH
gust
MPH
rain 1hr
in
rain 24hr
in
rain mn
in
humidity
%
barometer
mb
20260906002408 81 185 0.0 0.0 0.00 0.00 0.00 67 1015.5
20260906001903 82 167 0.0 0.0 0.00 0.00 0.00 66 1015.6
20260906001359 82 147 0.0 0.0 0.00 0.00 0.00 65 1015.4
20260906000859 82 165 0.0 0.0 0.00 0.00 0.00 65 1015.5
20260906000356 82 141 0.0 2.0 0.00 0.00 0.00 64 1015.6
20260905235849 83 173 2.0 3.0 0.00 0.00 0.00 64 1015.7
20260905235348 83 175 0.0 2.0 0.00 0.00 0.00 64 1015.6
20260905234844 83 181 0.0 0.0 0.00 0.00 0.00 64 1015.6
20260905234339 84 169 0.0 2.0 0.00 0.00 0.00 63 1015.5
20260905233834 84 157 2.0 2.0 0.00 0.00 0.00 63 1015.4
20260905233329 84 151 2.0 2.0 0.00 0.00 0.00 62 1015.2
20260905232828 84 39 3.0 3.0 0.00 0.00 0.00 61 1015.1
20260905232325 84 164 0.0 0.0 0.00 0.00 0.00 61 1015.2
20260905231820 85 140 2.0 3.0 0.00 0.00 0.00 60 1015.1
20260905231315 85 123 1.0 2.0 0.00 0.00 0.00 60 1015.2
20260905230811 85 173 0.0 0.0 0.00 0.00 0.00 61 1015.0
20260905230309 85 152 1.0 2.0 0.00 0.00 0.00 60 1014.9
20260905225809 85 175 1.0 2.0 0.00 0.00 0.00 61 1015.1
20260905225306 85 149 2.0 3.0 0.00 0.00 0.00 61 1014.9
20260905224804 86 170 0.0 2.0 0.00 0.00 0.00 60 1014.7
20260905224300 86 101 4.0 5.0 0.00 0.00 0.00 59 1014.7
20260905223755 86 209 2.0 2.0 0.00 0.00 0.00 58 1014.9
20260905223252 86 51 4.0 5.0 0.00 0.00 0.00 58 1014.9
20260905222747 87 248 0.0 2.0 0.00 0.00 0.00 57 1014.8
20260905222246 87 189 2.0 3.0 0.00 0.00 0.00 57 1015.0
20260905221742 87 171 1.0 2.0 0.00 0.00 0.00 57 1015.0
20260905221239 88 108 2.0 2.0 0.00 0.00 0.00 55 1015.1
20260905220734 88 119 2.0 2.0 0.00 0.00 0.00 55 1015.2
20260905220231 88 176 1.0 2.0 0.00 0.00 0.00 56 1015.1
20260905215729 88 187 3.0 3.0 0.00 0.00 0.00 56 1015.2
20260905215225 88 106 2.0 3.0 0.00 0.00 0.00 56 1015.2
20260905214721 88 182 2.0 3.0 0.00 0.00 0.00 56 1015.4
20260905214216 87 186 1.0 2.0 0.00 0.00 0.00 57 1015.2
20260905213711 87 278 1.0 2.0 0.00 0.00 0.00 57 1015.3
20260905213207 89 87 2.0 7.0 0.00 0.00 0.00 56 1015.3
20260905212702 89 194 2.0 3.0 0.00 0.00 0.00 57 1015.2
20260905212201 89 177 1.0 2.0 0.00 0.00 0.00 57 1015.2
20260905211656 88 168 3.0 7.0 0.00 0.00 0.00 57 1015.3
20260905211151 87 134 2.0 2.0 0.00 0.00 0.00 58 1015.2
20260905210649 88 113 1.0 2.0 0.00 0.00 0.00 58 1015.1
20260905210148 88 106 3.0 5.0 0.00 0.00 0.00 58 1015.3
20260905205647 87 166 2.0 2.0 0.00 0.00 0.00 58 1015.3
20260905205142 88 20 4.0 5.0 0.00 0.00 0.00 57 1015.3
20260905204641 88 85 2.0 3.0 0.00 0.00 0.00 59 1015.9
20260905204136 88 2 2.0 3.0 0.00 0.00 0.00 60 1015.7
20260905203631 87 124 1.0 2.0 0.00 0.00 0.00 61 1016.2
20260905203126 86 113 2.0 3.0 0.00 0.00 0.00 63 1016.1
20260905202622 85 66 3.0 3.0 0.00 0.00 0.00 63 1016.3
20260905202117 85 133 2.0 3.0 0.00 0.00 0.00 63 1016.3
20260905201613 85 169 2.0 5.0 0.00 0.00 0.00 64 1016.5
20260905201112 85 192 1.0 2.0 0.00 0.00 0.00 64 1016.7
20260905200608 84 168 0.0 0.0 0.00 0.00 0.00 65 1016.6
20260905195555 84 183 4.0 5.0 0.00 0.00 0.00 64 1016.9
20260905195052 84 211 0.0 0.0 0.00 0.00 0.00 65 1016.9
20260905194551 84 138 1.0 3.0 0.00 0.00 0.00 66 1017.1
20260905194050 83 170 1.0 2.0 0.00 0.00 0.00 66 1017.3
20260905193546 83 130 1.0 2.0 0.00 0.00 0.00 66 1017.2
20260905193041 84 91 2.0 3.0 0.00 0.00 0.00 66 1017.2
20260905192536 84 161 1.0 2.0 0.00 0.00 0.00 65 1017.4
20260905192033 84 125 0.0 2.0 0.00 0.00 0.00 66 1017.5
20260905191530 84 85 3.0 3.0 0.00 0.00 0.00 65 1017.3
20260905191029 83 171 2.0 3.0 0.00 0.00 0.00 67 1017.2
20260905190527 83 153 2.0 3.0 0.00 0.00 0.00 67 1017.3
20260905190022 83 118 2.0 2.0 0.00 0.00 0.00 67 1017.2
20260905185521 82 192 1.0 2.0 0.00 0.00 0.00 70 1017.2
20260905185020 83 103 2.0 3.0 0.00 0.00 0.00 68 1017.3
20260905184515 83 175 0.0 0.0 0.00 0.00 0.00 69 1017.4
20260905184014 82 96 2.0 3.0 0.00 0.00 0.00 69 1017.4
20260905183514 83 162 1.0 2.0 0.00 0.00 0.00 68 1017.4
20260905183009 83 183 1.0 2.0 0.00 0.00 0.00 68 1017.5
20260905182508 83 172 1.0 2.0 0.00 0.00 0.00 68 1017.5
20260905182003 82 94 3.0 5.0 0.00 0.00 0.00 69 1017.5
20260905181458 82 72 1.0 2.0 0.00 0.00 0.00 71 1017.4
20260905180957 81 117 2.0 3.0 0.00 0.00 0.00 71 1017.7
20260905180452 81 198 2.0 3.0 0.00 0.00 0.00 71 1017.6
20260905175947 80 143 0.0 0.0 0.00 0.00 0.00 73 1017.7
20260905175446 80 164 1.0 2.0 0.00 0.00 0.00 73 1017.8
20260905174942 79 130 2.0 3.0 0.00 0.00 0.00 74 1017.8
20260905174437 80 160 0.0 2.0 0.00 0.00 0.00 74 1018.0
20260905173933 80 170 0.0 0.0 0.00 0.00 0.00 74 1018.1
20260905173429 80 159 1.0 2.0 0.00 0.00 0.00 75 1018.2
20260905172925 79 177 1.0 2.0 0.00 0.00 0.00 77 1018.3
20260905172422 78 231 0.0 0.0 0.00 0.00 0.00 77 1018.2
20260905171918 78 140 1.0 2.0 0.00 0.00 0.00 78 1018.5
20260905171415 77 2 2.0 3.0 0.00 0.00 0.00 78 1018.3
20260905170911 77 194 1.0 2.0 0.00 0.00 0.00 79 1018.4
20260905170407 77 152 4.0 7.0 0.00 0.00 0.00 79 1018.4
20260905165901 76 171 1.0 2.0 0.00 0.00 0.00 81 1018.2
20260905165356 77 177 0.0 0.0 0.00 0.00 0.00 80 1018.4
20260905164856 77 152 0.0 0.0 0.00 0.00 0.00 80 1018.4
20260905164351 76 176 0.0 2.0 0.00 0.00 0.00 81 1018.4
20260905163846 76 72 2.0 2.0 0.00 0.00 0.00 82 1018.4
20260905163342 75 149 0.0 0.0 0.00 0.00 0.00 82 1018.6
20260905162838 75 154 2.0 3.0 0.00 0.00 0.00 82 1018.4
20260905162337 75 169 0.0 0.0 0.00 0.00 0.00 82 1018.6
20260905161832 75 154 0.0 0.0 0.00 0.00 0.00 83 1018.3
20260905161332 75 156 0.0 2.0 0.00 0.00 0.00 82 1018.5
20260905160830 75 212 1.0 2.0 0.00 0.00 0.00 83 1018.3
20260905160325 75 68 0.0 0.0 0.00 0.00 0.00 83 1018.3
20260905155820 75 85 1.0 2.0 0.00 0.00 0.00 83 1018.4
20260905155319 74 81 2.0 3.0 0.00 0.00 0.00 85 1018.2
20260905154819 74 207 2.0 3.0 0.00 0.00 0.00 86 1018.3
20260905154314 73 169 0.0 0.0 0.00 0.00 0.00 86 1018.5
20260905153809 73 138 0.0 2.0 0.00 0.00 0.00 86 1018.3
20260905153306 73 130 0.0 0.0 0.00 0.00 0.00 87 1018.3
20260905152800 72 167 0.0 0.0 0.00 0.00 0.00 88 1018.4
20260905152259 72 263 1.0 2.0 0.00 0.00 0.00 88 1018.2
20260905151754 72 223 2.0 2.0 0.00 0.00 0.00 88 1018.1
20260905151250 72 177 0.0 2.0 0.00 0.00 0.00 88 1017.9
20260905150749 72 147 0.0 2.0 0.00 0.00 0.00 89 1017.9
20260905150249 72 152 0.0 0.0 0.00 0.00 0.00 89 1017.5
20260905145747 71 157 0.0 0.0 0.00 0.00 0.00 89 1017.7
20260905145241 71 147 0.0 2.0 0.00 0.00 0.00 90 1017.7
20260905144740 71 145 0.0 0.0 0.00 0.00 0.00 91 1017.8
20260905144236 71 161 0.0 0.0 0.00 0.00 0.00 91 1017.9
20260905143735 71 129 2.0 3.0 0.00 0.00 0.00 91 1017.7
20260905143235 71 310 2.0 3.0 0.00 0.00 0.00 92 1017.9
20260905142733 71 124 1.0 2.0 0.00 0.00 0.00 93 1017.9
20260905142228 70 158 0.0 0.0 0.00 0.00 0.00 93 1017.8
20260905141724 70 103 2.0 2.0 0.00 0.00 0.00 94 1017.8
20260905141220 70 136 2.0 3.0 0.00 0.00 0.00 94 1017.8
20260905140715 70 130 2.0 2.0 0.00 0.00 0.00 95 1017.8
20260905140214 69 141 2.0 2.0 0.00 0.00 0.00 95 1017.9
20260905135704 69 144 1.0 2.0 0.00 0.00 0.00 95 1018.1
20260905135159 69 143 1.0 2.0 0.00 0.00 0.00 96 1018.0
20260905134653 69 157 0.0 0.0 0.00 0.00 0.00 96 1017.9
20260905134152 69 158 0.0 0.0 0.00 0.00 0.00 96 1018.0
20260905133647 69 158 0.0 0.0 0.00 0.00 0.00 96 1017.8
20260905133142 69 171 0.0 0.0 0.00 0.00 0.00 96 1017.8
20260905132641 69 171 0.0 0.0 0.00 0.00 0.00 96 1017.9
20260905132137 69 160 0.0 0.0 0.00 0.00 0.00 96 1017.5
20260905131632 69 160 0.0 0.0 0.00 0.00 0.00 96 1017.6
20260905131126 69 185 1.0 2.0 0.00 0.00 0.00 96 1017.6
20260905130621 69 174 0.0 0.0 0.00 0.00 0.00 96 1017.4
20260905130120 69 173 0.0 0.0 0.00 0.00 0.00 97 1017.1
20260905125614 69 167 0.0 0.0 0.00 0.00 0.00 97 1016.7
20260905125110 68 153 1.0 2.0 0.00 0.00 0.00 97 1016.3
20260905124607 68 351 2.0 5.0 0.00 0.00 0.00 96 1016.4
20260905124102 68 130 2.0 2.0 0.00 0.00 0.00 96 1016.2
20260905123557 68 154 0.0 0.0 0.00 0.00 0.00 96 1016.1
20260905123054 68 163 0.0 0.0 0.00 0.00 0.00 96 1015.9
20260905122548 68 160 0.0 2.0 0.00 0.00 0.00 96 1016.3
20260905122043 68 157 0.0 0.0 0.00 0.00 0.00 96 1016.3
20260905121538 68 153 0.0 2.0 0.00 0.00 0.00 96 1016.4
20260905121033 68 167 0.0 0.0 0.00 0.00 0.00 96 1016.3
20260905120532 68 72 2.0 2.0 0.00 0.00 0.00 96 1016.6
20260905120028 68 157 0.0 0.0 0.00 0.00 0.00 96 1016.6
20260905115526 68 172 0.0 0.0 0.00 0.00 0.00 96 1016.6
20260905115021 68 237 1.0 2.0 0.00 0.00 0.00 96 1016.6
20260905114520 68 154 0.0 0.0 0.00 0.00 0.00 96 1016.4
20260905114020 68 147 0.0 2.0 0.00 0.00 0.00 95 1016.2
20260905113515 68 155 0.0 2.0 0.00 0.00 0.00 95 1016.3
20260905113010 68 155 0.0 0.0 0.00 0.00 0.00 95 1016.2
20260905112505 68 152 0.0 0.0 0.00 0.00 0.00 95 1016.1
20260905112000 68 150 0.0 2.0 0.00 0.00 0.00 95 1015.9
20260905111455 68 157 0.0 2.0 0.00 0.00 0.00 95 1016.1
20260905110949 68 115 0.0 2.0 0.00 0.00 0.00 95 1016.1
20260905110448 68 147 0.0 0.0 0.00 0.00 0.00 95 1016.2
20260905105948 68 174 0.0 0.0 0.00 0.00 0.00 95 1016.2
20260905105443 68 173 0.0 0.0 0.00 0.00 0.00 95 1016.1
20260905104942 68 163 0.0 0.0 0.00 0.00 0.00 95 1016.1
20260905104438 68 155 0.0 0.0 0.00 0.00 0.00 95 1016.2
20260905103933 68 158 0.0 0.0 0.00 0.00 0.00 94 1016.0
20260905103429 68 170 2.0 3.0 0.00 0.00 0.00 94 1016.0
20260905102925 68 166 0.0 2.0 0.00 0.00 0.00 94 1015.9
20260905102421 68 164 0.0 0.0 0.00 0.00 0.00 94 1015.8
20260905101915 68 178 0.0 0.0 0.00 0.00 0.00 94 1015.9
20260905101408 68 150 0.0 2.0 0.00 0.00 0.00 94 1015.9
20260905100903 68 180 0.0 0.0 0.00 0.00 0.00 94 1016.2
20260905100359 68 151 0.0 0.0 0.00 0.00 0.00 94 1016.2
20260905095858 68 11 2.0 3.0 0.00 0.00 0.00 94 1015.5
20260905095352 68 168 0.0 0.0 0.00 0.00 0.00 94 1015.5
20260905094847 68 156 0.0 0.0 0.00 0.00 0.00 94 1015.5
20260905094343 68 166 2.0 2.0 0.00 0.00 0.00 94 1015.1
20260905093841 68 34 2.0 3.0 0.00 0.00 0.00 94 1015.3
20260905093337 68 209 2.0 3.0 0.00 0.00 0.00 94 1015.2
20260905092833 68 147 3.0 5.0 0.00 0.00 0.00 93 1015.1
20260905092332 68 153 0.0 0.0 0.00 0.00 0.00 93 1015.3
20260905091828 68 144 0.0 0.0 0.00 0.00 0.00 93 1015.3
20260905091327 68 138 1.0 2.0 0.00 0.00 0.00 93 1015.4
20260905090826 68 166 1.0 2.0 0.00 0.00 0.00 93 1015.4
20260905090322 68 119 2.0 3.0 0.00 0.00 0.00 92 1015.7
20260905085821 68 126 2.0 2.0 0.00 0.00 0.00 92 1015.7
20260905085316 68 176 2.0 2.0 0.00 0.00 0.00 92 1015.8
20260905084812 68 160 0.0 2.0 0.00 0.00 0.00 92 1015.7
20260905084311 68 110 3.0 3.0 0.00 0.00 0.00 92 1015.8
20260905083806 68 47 4.0 5.0 0.00 0.00 0.00 92 1015.7
20260905083302 68 161 1.0 2.0 0.00 0.00 0.00 92 1015.7
20260905082758 68 157 0.0 0.0 0.00 0.00 0.00 92 1015.9
20260905082254 68 159 0.0 0.0 0.00 0.00 0.00 92 1015.6
20260905081753 68 173 2.0 3.0 0.00 0.00 0.00 92 1015.6
20260905081249 68 136 2.0 2.0 0.00 0.00 0.00 92 1015.8
20260905080742 68 115 2.0 2.0 0.00 0.00 0.00 92 1015.8
20260905080242 68 74 4.0 5.0 0.00 0.00 0.00 92 1015.9
20260905075741 68 106 1.0 2.0 0.00 0.00 0.00 92 1015.9
20260905075240 68 107 3.0 3.0 0.00 0.00 0.00 92 1015.8
20260905074739 68 139 0.0 0.0 0.00 0.00 0.00 92 1015.9
20260905074236 68 135 0.0 0.0 0.00 0.00 0.00 93 1015.9
20260905073731 68 164 0.0 0.0 0.00 0.00 0.00 93 1015.8
20260905073226 68 163 0.0 0.0 0.00 0.00 0.00 92 1016.0
20260905072725 68 170 1.0 2.0 0.00 0.00 0.00 92 1015.9
20260905072221 68 124 2.0 3.0 0.00 0.00 0.00 92 1016.0
20260905071718 68 135 1.0 2.0 0.00 0.00 0.00 92 1015.9
20260905071214 68 158 2.0 3.0 0.00 0.00 0.00 92 1015.8
20260905070708 68 155 1.0 2.0 0.00 0.00 0.00 92 1016.2
20260905070204 68 146 0.0 0.0 0.00 0.00 0.00 91 1016.0
20260905065703 68 179 2.0 2.0 0.00 0.00 0.00 91 1015.8
20260905065157 68 5 0.0 2.0 0.00 0.00 0.00 91 1015.9
20260905064652 67 282 3.0 3.0 0.00 0.00 0.00 92 1015.9
20260905064148 67 159 0.0 2.0 0.00 0.00 0.00 91 1016.0
20260905063646 67 130 1.0 2.0 0.00 0.00 0.00 91 1016.0
20260905063143 68 164 1.0 2.0 0.00 0.00 0.00 91 1016.0
20260905062638 68 157 0.0 0.0 0.00 0.00 0.00 91 1015.9
20260905062137 68 147 0.0 0.0 0.00 0.00 0.00 91 1015.9
20260905061632 68 158 1.0 2.0 0.00 0.00 0.00 91 1016.0
20260905061132 68 73 1.0 2.0 0.00 0.00 0.00 91 1015.8
20260905060627 68 115 0.0 0.0 0.00 0.00 0.00 90 1015.7
20260905060124 68 168 0.0 0.0 0.00 0.00 0.00 90 1016.0
20260905055622 68 122 1.0 2.0 0.00 0.00 0.00 90 1015.9
20260905055117 68 167 2.0 3.0 0.00 0.00 0.00 89 1015.7
20260905054613 69 172 0.0 2.0 0.00 0.00 0.00 89 1015.5
20260905054108 69 72 1.0 2.0 0.00 0.00 0.00 88 1015.7
20260905053603 69 113 0.0 2.0 0.00 0.00 0.00 88 1015.7
20260905053058 69 121 0.0 0.0 0.00 0.00 0.00 88 1015.7
20260905052557 69 154 0.0 0.0 0.00 0.00 0.00 87 1015.6
20260905052052 69 112 1.0 3.0 0.00 0.00 0.00 87 1015.6
20260905051548 70 268 1.0 2.0 0.00 0.00 0.00 87 1015.5
20260905051044 70 216 1.0 2.0 0.00 0.00 0.00 86 1015.3
20260905050539 70 152 0.0 2.0 0.00 0.00 0.00 86 1015.2
20260905050037 70 130 1.0 2.0 0.00 0.00 0.00 86 1015.3
20260905045531 70 161 0.0 2.0 0.00 0.00 0.00 86 1015.3
20260905045026 70 237 0.0 0.0 0.00 0.00 0.00 85 1015.2
20260905044527 71 162 2.0 2.0 0.00 0.00 0.00 85 1015.5
20260905044026 71 166 0.0 2.0 0.00 0.00 0.00 85 1015.4
20260905043526 71 59 2.0 3.0 0.00 0.00 0.00 85 1015.2
20260905043021 71 169 2.0 2.0 0.00 0.00 0.00 84 1015.3
20260905042520 71 93 1.0 2.0 0.00 0.00 0.00 84 1015.6
20260905042015 71 156 0.0 2.0 0.00 0.00 0.00 84 1015.5
20260905041511 71 164 0.0 2.0 0.00 0.00 0.00 84 1015.6
20260905041006 72 63 1.0 2.0 0.00 0.00 0.00 83 1015.5
20260905040505 72 148 0.0 0.0 0.00 0.00 0.00 83 1015.3
20260905040004 72 144 0.0 0.0 0.00 0.00 0.00 82 1015.4
20260905035500 72 134 2.0 2.0 0.00 0.00 0.00 82 1015.6
20260905034957 72 75 2.0 3.0 0.00 0.00 0.00 82 1015.4
20260905034457 73 140 1.0 2.0 0.00 0.00 0.00 81 1015.4
20260905033956 73 143 1.0 2.0 0.00 0.00 0.00 81 1015.1
20260905033451 73 48 2.0 5.0 0.00 0.00 0.00 81 1015.4
20260905032946 73 130 2.0 2.0 0.00 0.00 0.00 80 1015.3
20260905032441 73 96 2.0 5.0 0.00 0.00 0.00 80 1015.3
20260905031936 74 98 2.0 2.0 0.00 0.00 0.00 80 1015.2
20260905031432 74 123 2.0 2.0 0.00 0.00 0.00 79 1015.2
20260905030927 74 155 2.0 2.0 0.00 0.00 0.00 79 1015.1
20260905030422 74 64 2.0 2.0 0.00 0.00 0.00 78 1015.1
20260905025921 75 209 2.0 2.0 0.00 0.00 0.00 78 1015.0
20260905025416 75 155 2.0 2.0 0.00 0.00 0.00 78 1015.1
20260905024913 75 323 5.0 9.0 0.00 0.00 0.00 77 1015.0
20260905024408 75 181 3.0 3.0 0.00 0.00 0.00 77 1014.8
20260905023904 75 301 3.0 5.0 0.00 0.00 0.00 76 1014.9
20260905023359 76 108 2.0 2.0 0.00 0.00 0.00 76 1014.8
20260905022857 76 153 1.0 2.0 0.00 0.00 0.00 75 1014.7
20260905022354 77 32 3.0 3.0 0.00 0.00 0.00 75 1014.7
20260905021853 77 102 2.0 2.0 0.00 0.00 0.00 74 1014.6
20260905021348 77 130 2.0 2.0 0.00 0.00 0.00 74 1014.4
20260905020843 78 357 6.0 9.0 0.00 0.00 0.00 74 1014.5
20260905020333 78 312 4.0 5.0 0.00 0.00 0.00 73 1014.5
20260905015832 78 97 2.0 3.0 0.00 0.00 0.00 73 1014.4
20260905015331 79 121 0.0 2.0 0.00 0.00 0.00 73 1014.7
20260905014830 79 107 1.0 2.0 0.00 0.00 0.00 73 1014.2
20260905014326 79 99 2.0 2.0 0.00 0.00 0.00 73 1014.1
20260905013821 79 166 0.0 0.0 0.00 0.00 0.00 74 1014.2
20260905013312 79 109 0.0 2.0 0.00 0.00 0.00 74 1014.1
20260905012807 79 159 0.0 0.0 0.00 0.00 0.00 73 1014.1
20260905012306 79 163 0.0 0.0 0.00 0.00 0.00 73 1014.0
20260905011759 80 158 0.0 0.0 0.00 0.00 0.00 72 1014.0
20260905011254 80 162 0.0 2.0 0.00 0.00 0.00 72 1014.0
20260905010749 80 119 0.0 2.0 0.00 0.00 0.00 71 1014.0
20260905010245 80 125 0.0 2.0 0.00 0.00 0.00 71 1013.9
20260905005741 80 145 0.0 2.0 0.00 0.00 0.00 71 1013.9
20260905005236 81 164 0.0 0.0 0.00 0.00 0.00 71 1013.6
20260905004736 81 158 0.0 2.0 0.00 0.00 0.00 70 1013.8
20260905004231 81 103 2.0 3.0 0.00 0.00 0.00 70 1013.6
20260905003731 81 133 1.0 2.0 0.00 0.00 0.00 70 1013.9
20260905003227 82 149 1.0 2.0 0.00 0.00 0.00 69 1013.7